Year,Month,Day,Hour,Minute,Value (Times are PST for temperature in C)
2020,07,26,00,00,21.50
2020,07,26,00,01,21.40
2020,07,26,00,02,21.40
2020,07,26,00,03,21.40
2020,07,26,00,04,21.30
2020,07,26,00,05,21.30
2020,07,26,00,06,21.30
2020,07,26,00,07,21.20
2020,07,26,00,08,21.20
2020,07,26,00,09,21.20
2020,07,26,00,10,21.30
2020,07,26,00,11,21.30
2020,07,26,00,12,21.30
2020,07,26,00,13,21.30
2020,07,26,00,14,21.30
2020,07,26,00,15,21.40
2020,07,26,00,16,21.40
2020,07,26,00,17,21.40
2020,07,26,00,18,21.40
2020,07,26,00,19,21.40
2020,07,26,00,20,21.40
2020,07,26,00,21,21.40
2020,07,26,00,22,21.40
2020,07,26,00,23,21.40
2020,07,26,00,24,21.40
2020,07,26,00,25,21.40
2020,07,26,00,26,21.40
2020,07,26,00,27,21.40
2020,07,26,00,28,21.50
2020,07,26,00,29,21.50
2020,07,26,00,30,21.50
2020,07,26,00,31,21.50
2020,07,26,00,32,21.50
2020,07,26,00,33,21.50
2020,07,26,00,34,21.50
2020,07,26,00,35,21.50
2020,07,26,00,36,21.50
2020,07,26,00,37,21.50
2020,07,26,00,38,21.50
2020,07,26,00,39,21.50
2020,07,26,00,40,21.40
2020,07,26,00,41,21.40
2020,07,26,00,42,21.40
2020,07,26,00,43,21.40
2020,07,26,00,44,21.40
2020,07,26,00,45,21.40
2020,07,26,00,46,21.30
2020,07,26,00,47,21.30
2020,07,26,00,48,21.30
2020,07,26,00,49,21.30
2020,07,26,00,50,21.30
2020,07,26,00,51,21.30
2020,07,26,00,52,21.30
2020,07,26,00,53,21.30
2020,07,26,00,54,21.30
2020,07,26,00,55,21.30
2020,07,26,00,56,21.30
2020,07,26,00,57,21.30
2020,07,26,00,58,21.30
2020,07,26,00,59,21.20
2020,07,26,01,00,21.20
2020,07,26,01,01,21.20
2020,07,26,01,02,21.20
2020,07,26,01,03,21.20
2020,07,26,01,04,21.20
2020,07,26,01,05,21.20
2020,07,26,01,06,21.20
2020,07,26,01,07,21.20
2020,07,26,01,08,21.20
2020,07,26,01,09,21.20
2020,07,26,01,10,21.20
2020,07,26,01,11,21.10
2020,07,26,01,12,21.10
2020,07,26,01,13,21.10
2020,07,26,01,14,21.00
2020,07,26,01,15,21.00
2020,07,26,01,16,20.90
2020,07,26,01,17,20.90
2020,07,26,01,18,20.90
2020,07,26,01,19,20.90
2020,07,26,01,20,20.80
2020,07,26,01,21,20.80
2020,07,26,01,22,20.80
2020,07,26,01,23,20.70
2020,07,26,01,24,20.70
2020,07,26,01,25,20.60
2020,07,26,01,26,20.60
2020,07,26,01,27,20.60
2020,07,26,01,28,20.60
2020,07,26,01,29,20.60
2020,07,26,01,30,20.60
2020,07,26,01,31,20.60
2020,07,26,01,32,20.60
2020,07,26,01,33,20.60
2020,07,26,01,34,20.60
2020,07,26,01,35,20.60
2020,07,26,01,36,20.60
2020,07,26,01,37,20.70
2020,07,26,01,38,20.70
2020,07,26,01,39,20.70
2020,07,26,01,40,20.70
2020,07,26,01,41,20.70
2020,07,26,01,42,20.70
2020,07,26,01,43,20.70
2020,07,26,01,44,20.70
2020,07,26,01,45,20.70
2020,07,26,01,46,20.70
2020,07,26,01,47,20.70
2020,07,26,01,48,20.70
2020,07,26,01,49,20.70
2020,07,26,01,50,20.70
2020,07,26,01,51,20.60
2020,07,26,01,52,20.60
2020,07,26,01,53,20.60
2020,07,26,01,54,20.60
2020,07,26,01,55,20.60
2020,07,26,01,56,20.60
2020,07,26,01,57,20.60
2020,07,26,01,58,20.60
2020,07,26,01,59,20.60
2020,07,26,02,00,20.60
2020,07,26,02,01,20.60
2020,07,26,02,02,20.50
2020,07,26,02,03,20.50
2020,07,26,02,04,20.50
2020,07,26,02,05,20.40
2020,07,26,02,06,20.40
2020,07,26,02,07,20.40
2020,07,26,02,08,20.40
2020,07,26,02,09,20.30
2020,07,26,02,10,20.30
2020,07,26,02,11,20.30
2020,07,26,02,12,20.30
2020,07,26,02,13,20.30
2020,07,26,02,14,20.20
2020,07,26,02,15,20.20
2020,07,26,02,16,20.20
2020,07,26,02,17,20.10
2020,07,26,02,18,20.10
2020,07,26,02,19,20.10
2020,07,26,02,20,20.10
2020,07,26,02,21,20.10
2020,07,26,02,22,20.00
2020,07,26,02,23,20.00
2020,07,26,02,24,19.90
2020,07,26,02,25,19.90
2020,07,26,02,26,19.80
2020,07,26,02,27,19.80
2020,07,26,02,28,19.70
2020,07,26,02,29,19.70
2020,07,26,02,30,19.70
2020,07,26,02,31,19.70
2020,07,26,02,32,19.70
2020,07,26,02,33,19.70
2020,07,26,02,34,19.70
2020,07,26,02,35,19.70
2020,07,26,02,36,19.70
2020,07,26,02,37,19.70
2020,07,26,02,38,19.60
2020,07,26,02,39,19.60
2020,07,26,02,40,19.70
2020,07,26,02,41,19.70
2020,07,26,02,42,19.70
2020,07,26,02,43,19.70
2020,07,26,02,44,19.70
2020,07,26,02,45,19.70
2020,07,26,02,46,19.70
2020,07,26,02,47,19.70
2020,07,26,02,48,19.80
2020,07,26,02,49,19.80
2020,07,26,02,50,19.70
2020,07,26,02,51,19.70
2020,07,26,02,52,19.70
2020,07,26,02,53,19.70
2020,07,26,02,54,19.70
2020,07,26,02,55,19.70
2020,07,26,02,56,19.70
2020,07,26,02,57,19.70
2020,07,26,02,58,19.70
2020,07,26,02,59,19.70
2020,07,26,03,00,19.70
2020,07,26,03,01,19.60
2020,07,26,03,02,19.60
2020,07,26,03,03,19.60
2020,07,26,03,04,19.60
2020,07,26,03,05,19.60
2020,07,26,03,06,19.60
2020,07,26,03,07,19.60
2020,07,26,03,08,19.60
2020,07,26,03,09,19.60
2020,07,26,03,10,19.60
2020,07,26,03,11,19.60
2020,07,26,03,12,19.60
2020,07,26,03,13,19.60
2020,07,26,03,14,19.60
2020,07,26,03,15,19.60
2020,07,26,03,16,19.60
2020,07,26,03,17,19.50
2020,07,26,03,18,19.50
2020,07,26,03,19,19.50
2020,07,26,03,20,19.40
2020,07,26,03,21,19.40
2020,07,26,03,22,19.40
2020,07,26,03,23,19.30
2020,07,26,03,24,19.30
2020,07,26,03,25,19.30
2020,07,26,03,26,19.30
2020,07,26,03,27,19.30
2020,07,26,03,28,19.30
2020,07,26,03,29,19.30
2020,07,26,03,30,19.30
2020,07,26,03,31,19.30
2020,07,26,03,32,19.30
2020,07,26,03,33,19.30
2020,07,26,03,34,19.30
2020,07,26,03,35,19.30
2020,07,26,03,36,19.30
2020,07,26,03,37,19.30
2020,07,26,03,38,19.30
2020,07,26,03,39,19.30
2020,07,26,03,40,19.20
2020,07,26,03,41,19.20
2020,07,26,03,42,19.20
2020,07,26,03,43,19.10
2020,07,26,03,44,19.10
2020,07,26,03,45,19.10
2020,07,26,03,46,19.10
2020,07,26,03,47,19.10
2020,07,26,03,48,19.10
2020,07,26,03,49,19.10
2020,07,26,03,50,19.10
2020,07,26,03,51,19.10
2020,07,26,03,52,19.10
2020,07,26,03,53,19.10
2020,07,26,03,54,19.10
2020,07,26,03,55,19.10
2020,07,26,03,56,19.10
2020,07,26,03,57,19.10
2020,07,26,03,58,19.10
2020,07,26,03,59,19.10
2020,07,26,04,00,19.10
2020,07,26,04,01,19.10
2020,07,26,04,02,19.10
2020,07,26,04,03,19.00
2020,07,26,04,04,19.00
2020,07,26,04,05,19.00
2020,07,26,04,06,19.00
2020,07,26,04,07,19.00
2020,07,26,04,08,18.90
2020,07,26,04,09,18.90
2020,07,26,04,10,18.90
2020,07,26,04,11,18.90
2020,07,26,04,12,18.90
2020,07,26,04,13,18.90
2020,07,26,04,14,18.80
2020,07,26,04,15,18.80
2020,07,26,04,16,18.80
2020,07,26,04,17,18.80
2020,07,26,04,18,18.80
2020,07,26,04,19,18.80
2020,07,26,04,20,18.80
2020,07,26,04,21,18.80
2020,07,26,04,22,18.80
2020,07,26,04,23,18.80
2020,07,26,04,24,18.80
2020,07,26,04,25,18.80
2020,07,26,04,26,18.80
2020,07,26,04,27,18.80
2020,07,26,04,28,18.80
2020,07,26,04,29,18.80
2020,07,26,04,30,18.80
2020,07,26,04,31,18.80
2020,07,26,04,32,18.80
2020,07,26,04,33,18.70
2020,07,26,04,34,18.70
2020,07,26,04,35,18.70
2020,07,26,04,36,18.70
2020,07,26,04,37,18.60
2020,07,26,04,38,18.60
2020,07,26,04,39,18.60
2020,07,26,04,40,18.60
2020,07,26,04,41,18.60
2020,07,26,04,42,18.60
2020,07,26,04,43,18.60
2020,07,26,04,44,18.60
2020,07,26,04,45,18.60
2020,07,26,04,46,18.60
2020,07,26,04,47,18.60
2020,07,26,04,48,18.60
2020,07,26,04,49,18.60
2020,07,26,04,50,18.60
2020,07,26,04,51,18.50
2020,07,26,04,52,18.50
2020,07,26,04,53,18.50
2020,07,26,04,54,18.50
2020,07,26,04,55,18.50
2020,07,26,04,56,18.50
2020,07,26,04,57,18.50
2020,07,26,04,58,18.50
2020,07,26,04,59,18.50
2020,07,26,05,00,18.40
2020,07,26,05,01,18.40
2020,07,26,05,02,18.40
2020,07,26,05,03,18.40
2020,07,26,05,04,18.40
2020,07,26,05,05,18.40
2020,07,26,05,06,18.30
2020,07,26,05,07,18.30
2020,07,26,05,08,18.30
2020,07,26,05,09,18.30
2020,07,26,05,10,18.30
2020,07,26,05,11,18.30
2020,07,26,05,12,18.30
2020,07,26,05,13,18.30
2020,07,26,05,14,18.30
2020,07,26,05,15,18.30
2020,07,26,05,16,18.30
2020,07,26,05,17,18.30
2020,07,26,05,18,18.30
2020,07,26,05,19,18.30
2020,07,26,05,20,18.30
2020,07,26,05,21,18.30
2020,07,26,05,22,18.30
2020,07,26,05,23,18.30
2020,07,26,05,24,18.30
2020,07,26,05,25,18.30
2020,07,26,05,26,18.30
2020,07,26,05,27,18.30
2020,07,26,05,28,18.30
2020,07,26,05,29,18.30
2020,07,26,05,30,18.30
2020,07,26,05,31,18.30
2020,07,26,05,32,18.30
2020,07,26,05,33,18.20
2020,07,26,05,34,18.30
2020,07,26,05,35,18.30
2020,07,26,05,36,18.30
2020,07,26,05,37,18.20
2020,07,26,05,38,18.20
2020,07,26,05,39,18.20
2020,07,26,05,40,18.20
2020,07,26,05,41,18.20
2020,07,26,05,42,18.20
2020,07,26,05,43,18.20
2020,07,26,05,44,18.20
2020,07,26,05,45,18.10
2020,07,26,05,46,18.10
2020,07,26,05,47,18.10
2020,07,26,05,48,18.10
2020,07,26,05,49,18.10
2020,07,26,05,50,18.10
2020,07,26,05,51,18.10
2020,07,26,05,52,18.10
2020,07,26,05,53,18.10
2020,07,26,05,54,18.20
2020,07,26,05,55,18.20
2020,07,26,05,56,18.20
2020,07,26,05,57,18.20
2020,07,26,05,58,18.20
2020,07,26,05,59,18.20
2020,07,26,06,00,18.20
2020,07,26,06,01,18.30
2020,07,26,06,02,18.30
2020,07,26,06,03,18.30
2020,07,26,06,04,18.30
2020,07,26,06,05,18.30
2020,07,26,06,06,18.30
2020,07,26,06,07,18.40
2020,07,26,06,08,18.40
2020,07,26,06,09,18.40
2020,07,26,06,10,18.40
2020,07,26,06,11,18.40
2020,07,26,06,12,18.40
2020,07,26,06,13,18.50
2020,07,26,06,14,18.40
2020,07,26,06,15,18.40
2020,07,26,06,16,18.40
2020,07,26,06,17,18.40
2020,07,26,06,18,18.40
2020,07,26,06,19,18.40
2020,07,26,06,20,18.40
2020,07,26,06,21,18.40
2020,07,26,06,22,18.40
2020,07,26,06,23,18.40
2020,07,26,06,24,18.40
2020,07,26,06,25,18.40
2020,07,26,06,26,18.40
2020,07,26,06,27,18.50
2020,07,26,06,28,18.50
2020,07,26,06,29,18.50
2020,07,26,06,30,18.60
2020,07,26,06,31,18.60
2020,07,26,06,32,18.60
2020,07,26,06,33,18.60
2020,07,26,06,34,18.60
2020,07,26,06,35,18.70
2020,07,26,06,36,18.70
2020,07,26,06,37,18.70
2020,07,26,06,38,18.70
2020,07,26,06,39,18.70
2020,07,26,06,40,18.70
2020,07,26,06,41,18.70
2020,07,26,06,42,18.70
2020,07,26,06,43,18.70
2020,07,26,06,44,18.70
2020,07,26,06,45,18.80
2020,07,26,06,46,18.80
2020,07,26,06,47,18.80
2020,07,26,06,48,18.80
2020,07,26,06,49,18.80
2020,07,26,06,50,18.80
2020,07,26,06,51,18.90
2020,07,26,06,52,18.90
2020,07,26,06,53,18.90
2020,07,26,06,54,19.00
2020,07,26,06,55,19.00
2020,07,26,06,56,19.00
2020,07,26,06,57,19.10
2020,07,26,06,58,19.10
2020,07,26,06,59,19.10
2020,07,26,07,00,19.20
2020,07,26,07,01,19.20
2020,07,26,07,02,19.20
2020,07,26,07,03,19.20
2020,07,26,07,04,19.20
2020,07,26,07,05,19.20
2020,07,26,07,06,19.30
2020,07,26,07,07,19.30
2020,07,26,07,08,19.30
2020,07,26,07,09,19.30
2020,07,26,07,10,19.30
2020,07,26,07,11,19.30
2020,07,26,07,12,19.40
2020,07,26,07,13,19.40
2020,07,26,07,14,19.40
2020,07,26,07,15,19.40
2020,07,26,07,16,19.40
2020,07,26,07,17,19.50
2020,07,26,07,18,19.50
2020,07,26,07,19,19.50
2020,07,26,07,20,19.50
2020,07,26,07,21,19.50
2020,07,26,07,22,19.50
2020,07,26,07,23,19.60
2020,07,26,07,24,19.60
2020,07,26,07,25,19.60
2020,07,26,07,26,19.60
2020,07,26,07,27,19.60
2020,07,26,07,28,19.60
2020,07,26,07,29,19.60
2020,07,26,07,30,19.60
2020,07,26,07,31,19.60
2020,07,26,07,32,19.60
2020,07,26,07,33,19.60
2020,07,26,07,34,19.60
2020,07,26,07,35,19.60
2020,07,26,07,36,19.60
2020,07,26,07,37,19.60
2020,07,26,07,38,19.60
2020,07,26,07,39,19.60
2020,07,26,07,40,19.70
2020,07,26,07,41,19.70
2020,07,26,07,42,19.70
2020,07,26,07,43,19.70
2020,07,26,07,44,19.70
2020,07,26,07,45,19.60
2020,07,26,07,46,19.60
2020,07,26,07,47,19.60
2020,07,26,07,48,19.60
2020,07,26,07,49,19.60
2020,07,26,07,50,19.60
2020,07,26,07,51,19.60
2020,07,26,07,52,19.60
2020,07,26,07,53,19.70
2020,07,26,07,54,19.70
2020,07,26,07,55,19.70
2020,07,26,07,56,19.70
2020,07,26,07,57,19.70
2020,07,26,07,58,19.70
2020,07,26,07,59,19.70
2020,07,26,08,00,19.70
2020,07,26,08,01,19.70
2020,07,26,08,02,19.70
2020,07,26,08,03,19.70
2020,07,26,08,04,19.70
2020,07,26,08,05,19.70
2020,07,26,08,06,19.80
2020,07,26,08,07,19.80
2020,07,26,08,08,19.90
2020,07,26,08,09,19.90
2020,07,26,08,10,19.90
2020,07,26,08,11,19.90
2020,07,26,08,12,19.90
2020,07,26,08,13,19.90
2020,07,26,08,14,19.90
2020,07,26,08,15,19.90
2020,07,26,08,16,20.00
2020,07,26,08,17,20.00
2020,07,26,08,18,20.10
2020,07,26,08,19,20.10
2020,07,26,08,20,20.10
2020,07,26,08,21,20.20
2020,07,26,08,22,20.20
2020,07,26,08,23,20.30
2020,07,26,08,24,20.30
2020,07,26,08,25,20.30
2020,07,26,08,26,20.40
2020,07,26,08,27,20.40
2020,07,26,08,28,20.40
2020,07,26,08,29,20.40
2020,07,26,08,30,20.40
2020,07,26,08,31,20.40
2020,07,26,08,32,20.40
2020,07,26,08,33,20.40
2020,07,26,08,34,20.50
2020,07,26,08,35,20.50
2020,07,26,08,36,20.50
2020,07,26,08,37,20.60
2020,07,26,08,38,20.60
2020,07,26,08,39,20.60
2020,07,26,08,40,20.60
2020,07,26,08,41,20.60
2020,07,26,08,42,20.60
2020,07,26,08,43,20.60
2020,07,26,08,44,20.60
2020,07,26,08,45,20.60
2020,07,26,08,46,20.60
2020,07,26,08,47,20.60
2020,07,26,08,48,20.60
2020,07,26,08,49,20.60
2020,07,26,08,50,20.60
2020,07,26,08,51,20.70
2020,07,26,08,52,20.70
2020,07,26,08,53,20.60
2020,07,26,08,54,20.60
2020,07,26,08,55,20.60
2020,07,26,08,56,20.60
2020,07,26,08,57,20.60
2020,07,26,08,58,20.60
2020,07,26,08,59,20.60
2020,07,26,09,00,20.60
2020,07,26,09,01,20.60
2020,07,26,09,02,20.50
2020,07,26,09,03,20.50
2020,07,26,09,04,20.50
2020,07,26,09,05,20.40
2020,07,26,09,06,20.30
2020,07,26,09,07,20.30
2020,07,26,09,08,20.30
2020,07,26,09,09,20.30
2020,07,26,09,10,20.30
2020,07,26,09,11,20.20
2020,07,26,09,12,20.20
2020,07,26,09,13,20.20
2020,07,26,09,14,20.20
2020,07,26,09,15,20.20
2020,07,26,09,16,20.20
2020,07,26,09,17,20.20
2020,07,26,09,18,20.20
2020,07,26,09,19,20.20
2020,07,26,09,20,20.10
2020,07,26,09,21,20.10
2020,07,26,09,22,20.10
2020,07,26,09,23,20.10
2020,07,26,09,24,20.10
2020,07,26,09,25,20.10
2020,07,26,09,26,20.00
2020,07,26,09,27,20.00
2020,07,26,09,28,19.90
2020,07,26,09,29,19.90
2020,07,26,09,30,20.00
2020,07,26,09,31,20.00
2020,07,26,09,32,19.90
2020,07,26,09,33,19.90
2020,07,26,09,34,19.90
2020,07,26,09,35,19.90
2020,07,26,09,36,19.80
2020,07,26,09,37,19.80
2020,07,26,09,38,19.80
2020,07,26,09,39,19.70
2020,07,26,09,40,19.70
2020,07,26,09,41,19.80
2020,07,26,09,42,19.80
2020,07,26,09,43,19.70
2020,07,26,09,44,19.70
2020,07,26,09,45,19.70
2020,07,26,09,46,19.70
2020,07,26,09,47,19.70
2020,07,26,09,48,19.70
2020,07,26,09,49,19.70
2020,07,26,09,50,19.70
2020,07,26,09,51,19.70
2020,07,26,09,52,19.70
2020,07,26,09,53,19.80
2020,07,26,09,54,19.90
2020,07,26,09,55,19.90
2020,07,26,09,56,19.80
2020,07,26,09,57,19.80
2020,07,26,09,58,19.70
2020,07,26,09,59,19.70
2020,07,26,10,00,19.70
2020,07,26,10,01,19.70
2020,07,26,10,02,19.70
2020,07,26,10,03,19.70
2020,07,26,10,04,19.70
2020,07,26,10,05,19.70
2020,07,26,10,06,19.70
2020,07,26,10,07,19.70
2020,07,26,10,08,19.60
2020,07,26,10,09,19.60
2020,07,26,10,10,19.60
2020,07,26,10,11,19.60
2020,07,26,10,12,19.60
2020,07,26,10,13,19.60
2020,07,26,10,14,19.60
2020,07,26,10,15,19.60
2020,07,26,10,16,19.60
2020,07,26,10,17,19.60
2020,07,26,10,18,19.60
2020,07,26,10,19,19.60
2020,07,26,10,20,19.60
2020,07,26,10,21,19.60
2020,07,26,10,22,19.60
2020,07,26,10,23,19.60
2020,07,26,10,24,19.70
2020,07,26,10,25,19.80
2020,07,26,10,26,19.80
2020,07,26,10,27,19.90
2020,07,26,10,28,19.90
2020,07,26,10,29,19.80
2020,07,26,10,30,19.80
2020,07,26,10,31,19.70
2020,07,26,10,32,19.80
2020,07,26,10,33,19.80
2020,07,26,10,34,19.90
2020,07,26,10,35,20.00
2020,07,26,10,36,20.00
2020,07,26,10,37,19.90
2020,07,26,10,38,19.90
2020,07,26,10,39,20.00
2020,07,26,10,40,20.00
2020,07,26,10,41,20.00
2020,07,26,10,42,20.00
2020,07,26,10,43,20.10
2020,07,26,10,44,20.20
2020,07,26,10,45,20.20
2020,07,26,10,46,20.30
2020,07,26,10,47,20.30
2020,07,26,10,48,20.30
2020,07,26,10,49,20.20
2020,07,26,10,50,20.20
2020,07,26,10,51,20.20
2020,07,26,10,52,20.20
2020,07,26,10,53,20.30
2020,07,26,10,54,20.30
2020,07,26,10,55,20.30
2020,07,26,10,56,20.30
2020,07,26,10,57,20.40
2020,07,26,10,58,20.40
2020,07,26,10,59,20.40
2020,07,26,11,00,20.40
2020,07,26,11,01,20.30
2020,07,26,11,02,20.30
2020,07,26,11,03,20.20
2020,07,26,11,04,20.20
2020,07,26,11,05,20.20
2020,07,26,11,06,20.10
2020,07,26,11,07,20.10
2020,07,26,11,08,20.00
2020,07,26,11,09,20.00
2020,07,26,11,10,19.90
2020,07,26,11,11,19.90
2020,07,26,11,12,19.90
2020,07,26,11,13,20.00
2020,07,26,11,14,20.10
2020,07,26,11,15,20.20
2020,07,26,11,16,20.30
2020,07,26,11,17,20.40
2020,07,26,11,18,20.50
2020,07,26,11,19,20.60
2020,07,26,11,20,20.70
2020,07,26,11,21,20.70
2020,07,26,11,22,20.70
2020,07,26,11,23,20.70
2020,07,26,11,24,20.70
2020,07,26,11,25,20.70
2020,07,26,11,26,20.70
2020,07,26,11,27,20.70
2020,07,26,11,28,20.70
2020,07,26,11,29,20.70
2020,07,26,11,30,20.70
2020,07,26,11,31,20.70
2020,07,26,11,32,20.60
2020,07,26,11,33,20.60
2020,07,26,11,34,20.60
2020,07,26,11,35,20.60
2020,07,26,11,36,20.60
2020,07,26,11,37,20.60
2020,07,26,11,38,20.60
2020,07,26,11,39,20.60
2020,07,26,11,40,20.70
2020,07,26,11,41,20.70
2020,07,26,11,42,20.80
2020,07,26,11,43,20.80
2020,07,26,11,44,20.80
2020,07,26,11,45,20.90
2020,07,26,11,46,20.80
2020,07,26,11,47,20.70
2020,07,26,11,48,20.70
2020,07,26,11,49,20.70
2020,07,26,11,50,20.70
2020,07,26,11,51,20.70
2020,07,26,11,52,20.70
2020,07,26,11,53,20.70
2020,07,26,11,54,20.80
2020,07,26,11,55,20.80
2020,07,26,11,56,20.90
2020,07,26,11,57,21.00
2020,07,26,11,58,21.10
2020,07,26,11,59,21.10
2020,07,26,12,00,21.20
2020,07,26,12,01,21.20
2020,07,26,12,02,21.30
2020,07,26,12,03,21.40
2020,07,26,12,04,21.40
2020,07,26,12,05,21.50
2020,07,26,12,06,21.50
2020,07,26,12,07,21.50
2020,07,26,12,08,21.60
2020,07,26,12,09,21.70
2020,07,26,12,10,21.70
2020,07,26,12,11,21.80
2020,07,26,12,12,21.80
2020,07,26,12,13,21.80
2020,07,26,12,14,21.80
2020,07,26,12,15,21.80
2020,07,26,12,16,21.80
2020,07,26,12,17,21.80
2020,07,26,12,18,21.80
2020,07,26,12,19,21.80
2020,07,26,12,20,21.80
2020,07,26,12,21,21.80
2020,07,26,12,22,21.70
2020,07,26,12,23,21.70
2020,07,26,12,24,21.70
2020,07,26,12,25,21.70
2020,07,26,12,26,21.70
2020,07,26,12,27,21.60
2020,07,26,12,28,21.60
2020,07,26,12,29,21.60
2020,07,26,12,30,21.60
2020,07,26,12,31,21.70
2020,07,26,12,32,21.70
2020,07,26,12,33,21.60
2020,07,26,12,34,21.70
2020,07,26,12,35,21.70
2020,07,26,12,36,21.60
2020,07,26,12,37,21.60
2020,07,26,12,38,21.60
2020,07,26,12,39,21.60
2020,07,26,12,40,21.60
2020,07,26,12,41,21.70
2020,07,26,12,42,21.70
2020,07,26,12,43,21.70
2020,07,26,12,44,21.60
2020,07,26,12,45,21.60
2020,07,26,12,46,21.70
2020,07,26,12,47,21.80
2020,07,26,12,48,21.80
2020,07,26,12,49,21.80
2020,07,26,12,50,21.90
2020,07,26,12,51,22.00
2020,07,26,12,52,22.10
2020,07,26,12,53,22.20
2020,07,26,12,54,22.20
2020,07,26,12,55,22.20
2020,07,26,12,56,22.30
2020,07,26,12,57,22.30
2020,07,26,12,58,22.20
2020,07,26,12,59,22.10
2020,07,26,13,00,22.10
2020,07,26,13,01,22.10
2020,07,26,13,02,22.10
2020,07,26,13,03,22.20
2020,07,26,13,04,22.30
2020,07,26,13,05,22.30
2020,07,26,13,06,22.30
2020,07,26,13,07,22.30
2020,07,26,13,08,22.40
2020,07,26,13,09,22.40
2020,07,26,13,10,22.30
2020,07,26,13,11,22.30
2020,07,26,13,12,22.30
2020,07,26,13,13,22.40
2020,07,26,13,14,22.50
2020,07,26,13,15,22.60
2020,07,26,13,16,22.70
2020,07,26,13,17,22.70
2020,07,26,13,18,22.60
2020,07,26,13,19,22.60
2020,07,26,13,20,22.60
2020,07,26,13,21,22.60
2020,07,26,13,22,22.70
2020,07,26,13,23,22.70
2020,07,26,13,24,22.70
2020,07,26,13,25,22.70
2020,07,26,13,26,22.70
2020,07,26,13,27,22.80
2020,07,26,13,28,22.80
2020,07,26,13,29,22.90
2020,07,26,13,30,22.90
2020,07,26,13,31,22.80
2020,07,26,13,32,22.80
2020,07,26,13,33,22.90
2020,07,26,13,34,23.00
2020,07,26,13,35,23.00
2020,07,26,13,36,23.00
2020,07,26,13,37,22.90
2020,07,26,13,38,22.80
2020,07,26,13,39,22.80
2020,07,26,13,40,22.80
2020,07,26,13,41,22.80
2020,07,26,13,42,22.80
2020,07,26,13,43,22.70
2020,07,26,13,44,22.60
2020,07,26,13,45,22.60
2020,07,26,13,46,22.60
2020,07,26,13,47,22.60
2020,07,26,13,48,22.60
2020,07,26,13,49,22.60
2020,07,26,13,50,22.60
2020,07,26,13,51,22.70
2020,07,26,13,52,22.70
2020,07,26,13,53,22.70
2020,07,26,13,54,22.70
2020,07,26,13,55,22.70
2020,07,26,13,56,22.80
2020,07,26,13,57,22.90
2020,07,26,13,58,23.00
2020,07,26,13,59,23.10
2020,07,26,14,00,23.20
2020,07,26,14,01,23.20
2020,07,26,14,02,23.20
2020,07,26,14,03,23.20
2020,07,26,14,04,23.30
2020,07,26,14,05,23.30
2020,07,26,14,06,23.40
2020,07,26,14,07,23.50
2020,07,26,14,08,23.60
2020,07,26,14,09,23.70
2020,07,26,14,10,23.70
2020,07,26,14,11,23.80
2020,07,26,14,12,23.70
2020,07,26,14,13,23.80
2020,07,26,14,14,23.90
2020,07,26,14,15,23.90
2020,07,26,14,16,23.80
2020,07,26,14,17,23.70
2020,07,26,14,18,23.70
2020,07,26,14,19,23.70
2020,07,26,14,20,23.70
2020,07,26,14,21,23.70
2020,07,26,14,22,23.70
2020,07,26,14,23,23.80
2020,07,26,14,24,23.70
2020,07,26,14,25,23.60
2020,07,26,14,26,23.60
2020,07,26,14,27,23.60
2020,07,26,14,28,23.70
2020,07,26,14,29,23.80
2020,07,26,14,30,23.80
2020,07,26,14,31,23.90
2020,07,26,14,32,23.90
2020,07,26,14,33,23.90
2020,07,26,14,34,23.90
2020,07,26,14,35,24.00
2020,07,26,14,36,24.10
2020,07,26,14,37,24.20
2020,07,26,14,38,24.30
2020,07,26,14,39,24.30
2020,07,26,14,40,24.30
2020,07,26,14,41,24.20
2020,07,26,14,42,24.10
2020,07,26,14,43,24.10
2020,07,26,14,44,24.10
2020,07,26,14,45,24.20
2020,07,26,14,46,24.20
2020,07,26,14,47,24.30
2020,07,26,14,48,24.30
2020,07,26,14,49,24.40
2020,07,26,14,50,24.40
2020,07,26,14,51,24.40
2020,07,26,14,52,24.50
2020,07,26,14,53,24.60
2020,07,26,14,54,24.60
2020,07,26,14,55,24.60
2020,07,26,14,56,24.60
2020,07,26,14,57,24.60
2020,07,26,14,58,24.60
2020,07,26,14,59,24.50
2020,07,26,15,00,24.50
2020,07,26,15,01,24.50
2020,07,26,15,02,24.50
2020,07,26,15,03,24.60
2020,07,26,15,04,24.60
2020,07,26,15,05,24.70
2020,07,26,15,06,24.80
2020,07,26,15,07,24.80
2020,07,26,15,08,24.80
2020,07,26,15,09,24.80
2020,07,26,15,10,24.80
2020,07,26,15,11,24.80
2020,07,26,15,12,24.80
2020,07,26,15,13,24.80
2020,07,26,15,14,24.80
2020,07,26,15,15,24.80
2020,07,26,15,16,24.90
2020,07,26,15,17,25.00
2020,07,26,15,18,25.10
2020,07,26,15,19,25.20
2020,07,26,15,20,25.20
2020,07,26,15,21,25.30
2020,07,26,15,22,25.30
2020,07,26,15,23,25.30
2020,07,26,15,24,25.30
2020,07,26,15,25,25.30
2020,07,26,15,26,25.30
2020,07,26,15,27,25.30
2020,07,26,15,28,25.40
2020,07,26,15,29,25.40
2020,07,26,15,30,25.40
2020,07,26,15,31,25.40
2020,07,26,15,32,25.40
2020,07,26,15,33,25.40
2020,07,26,15,34,25.40
2020,07,26,15,35,25.40
2020,07,26,15,36,25.50
2020,07,26,15,37,25.50
2020,07,26,15,38,25.60
2020,07,26,15,39,25.60
2020,07,26,15,40,25.60
2020,07,26,15,41,25.60
2020,07,26,15,42,25.70
2020,07,26,15,43,25.70
2020,07,26,15,44,25.80
2020,07,26,15,45,25.80
2020,07,26,15,46,25.80
2020,07,26,15,47,25.90
2020,07,26,15,48,25.90
2020,07,26,15,49,25.90
2020,07,26,15,50,25.90
2020,07,26,15,51,25.90
2020,07,26,15,52,25.90
2020,07,26,15,53,25.90
2020,07,26,15,54,25.90
2020,07,26,15,55,25.90
2020,07,26,15,56,25.90
2020,07,26,15,57,25.90
2020,07,26,15,58,25.90
2020,07,26,15,59,25.90
2020,07,26,16,00,25.90
2020,07,26,16,01,25.90
2020,07,26,16,02,25.90
2020,07,26,16,03,25.90
2020,07,26,16,04,26.00
2020,07,26,16,05,26.00
2020,07,26,16,06,25.90
2020,07,26,16,07,25.90
2020,07,26,16,08,25.90
2020,07,26,16,09,25.90
2020,07,26,16,10,25.90
2020,07,26,16,11,25.90
2020,07,26,16,12,26.00
2020,07,26,16,13,26.00
2020,07,26,16,14,26.10
2020,07,26,16,15,26.20
2020,07,26,16,16,26.20
2020,07,26,16,17,26.20
2020,07,26,16,18,26.20
2020,07,26,16,19,26.20
2020,07,26,16,20,26.30
2020,07,26,16,21,26.40
2020,07,26,16,22,26.60
2020,07,26,16,23,26.60
2020,07,26,16,24,26.60
2020,07,26,16,25,26.50
2020,07,26,16,26,26.40
2020,07,26,16,27,26.40
2020,07,26,16,28,26.40
2020,07,26,16,29,26.40
2020,07,26,16,30,26.40
2020,07,26,16,31,26.40
2020,07,26,16,32,26.50
2020,07,26,16,33,26.50
2020,07,26,16,34,26.60
2020,07,26,16,35,26.50
2020,07,26,16,36,26.50
2020,07,26,16,37,26.40
2020,07,26,16,38,26.40
2020,07,26,16,39,26.30
2020,07,26,16,40,26.30
2020,07,26,16,41,26.30
2020,07,26,16,42,26.40
2020,07,26,16,43,26.40
2020,07,26,16,44,26.30
2020,07,26,16,45,26.30
2020,07,26,16,46,26.30
2020,07,26,16,47,26.30
2020,07,26,16,48,26.30
2020,07,26,16,49,26.30
2020,07,26,16,50,26.20
2020,07,26,16,51,26.20
2020,07,26,16,52,26.20
2020,07,26,16,53,26.20
2020,07,26,16,54,26.20
2020,07,26,16,55,26.20
2020,07,26,16,56,26.20
2020,07,26,16,57,26.10
2020,07,26,16,58,26.10
2020,07,26,16,59,26.10
2020,07,26,17,00,26.00
2020,07,26,17,01,26.00
2020,07,26,17,02,25.90
2020,07,26,17,03,25.90
2020,07,26,17,04,25.90
2020,07,26,17,05,25.90
2020,07,26,17,06,25.90
2020,07,26,17,07,25.90
2020,07,26,17,08,25.90
2020,07,26,17,09,25.90
2020,07,26,17,10,25.90
2020,07,26,17,11,25.90
2020,07,26,17,12,25.90
2020,07,26,17,13,25.90
2020,07,26,17,14,25.90
2020,07,26,17,15,25.90
2020,07,26,17,16,25.90
2020,07,26,17,17,25.90
2020,07,26,17,18,25.90
2020,07,26,17,19,25.90